{"data":{"norad_id":40930,"intl_designator":"2015-052A","name":"ASTROSAT","alt_names":[],"object_type":"PAYLOAD","status":"ACTIVE","operator":null,"country":"IND","launch_date":"2015-09-28","launch_site_code":"SRILR","launch_vehicle":null,"mission":null,"orbit_class":"UNKNOWN","rcs_meters":4.8771,"size_class":null,"mass_kg":null,"dimensions":null,"purposes":["science"],"wikipedia_slug":null,"has_3d_model":false,"image_url":null,"decayed_at":null,"tle_current":{"epoch":"2026-09-20T00:13:53.722848Z","epoch_age_seconds":60524,"freshness":"FRESH","line1":"1 40930U 15052A   26263.00964957  .00001323  00000+0  79006-4 0  9992","line2":"2 40930   5.9956 192.7343 0008413 306.5141  53.4213 14.82648468593924","mean_motion":14.82648468,"eccentricity":0.0008413,"inclination_deg":5.9956,"raan_deg":192.7343,"arg_perigee_deg":306.5141,"mean_anomaly_deg":53.4213,"bstar":7.9006e-5,"rev_number":59392,"period_min":97.123494279293,"perigee_km":615.08830103233,"apogee_km":626.86500966882,"semimajor_km":6999.1136553506,"source":"CELESTRAK","updated_at":"2026-09-20T09:00:47.149669Z"}}}